Bellingham, WA
on Thursday, November 15, 2012

Thursday
Previous Day Next Day
Daily Summary
 ActualAverageRecord
Temperature
Mean Temperature °F 43°F  
Max Temperature 51°F 50°F 65°F (2004)
Min Temperature 35°F 37°F 3°F (1955)
Degree Days
Heating Degree Days 22 22  
Month to date heating degree days 301  
Cooling Degree Days 0 0  
Month to date cooling degree days 0  
Year to date cooling degree days 42  
Moisture
Dew Point 38°F   
Average Humidity 94    
Maximum Humidity 100    
Minimum Humidity 66    
Precipitation
Precipitation 0.00 in 0.21 in 0.87 in (2013)
Month to date precipitation 2.94  
Year to date precipitation 28.75  
Wind
Wind Speed 3 mph   
Max Wind Speed 7 mph   
Max Gust Speed mph   
Visibility 3 miles   
Events Fog   

Key: T is trace of precipitation, MM is missing value
Source: NWS Daily Summary
Time(PST)TemperatureDew PointHumidity Pressure Visibility Wind DirectionWind SpeedGust SpeedPrecipitationEvents Conditions
12:53 AM 35.1°F 34.0°F 96% 30.31 in 0.2 miles NNW 4.6 mph - N/A Fog Fog
1:08 AM 35.6°F 33.8°F 93% 30.27 in 0.5 miles Calm Calm - N/A Fog Fog
1:30 AM 35.6°F 33.8°F 93% 30.27 in 0.2 miles North 3.5 mph - N/A Fog Fog
1:53 AM 36.0°F 35.1°F 97% 30.29 in 0.2 miles Calm Calm - N/A Fog Fog
2:53 AM 37.9°F 36.0°F 93% 30.28 in 0.2 miles NNE 4.6 mph - N/A Fog Fog
3:08 AM 37.4°F 37.4°F 100% 30.25 in 0.2 miles North 3.5 mph - N/A Fog Fog
3:53 AM 39.0°F 37.9°F 96% 30.25 in 0.2 miles NNE 3.5 mph - N/A Fog Fog
4:53 AM 39.9°F 39.0°F 97% 30.25 in 0.2 miles North 3.5 mph - N/A Fog Fog
5:21 AM 39.2°F 39.2°F 100% 30.21 in 0.2 miles NE 3.5 mph - N/A Fog Fog
5:51 AM 39.2°F 37.4°F 93% 30.19 in 0.5 miles NE 4.6 mph - N/A Fog Fog
5:53 AM 39.0°F 37.9°F 96% 30.22 in 0.5 miles NE 3.5 mph - N/A Fog Fog
6:11 AM 39.2°F 39.2°F 100% 30.19 in 1.0 miles North 5.8 mph - N/A   Overcast
6:27 AM 39.2°F 39.2°F 100% 30.18 in 0.8 miles NNE 6.9 mph - N/A   Overcast
6:42 AM 39.2°F 39.2°F 100% 30.18 in 0.5 miles NE 3.5 mph - N/A Fog Fog
6:53 AM 39.9°F 39.0°F 97% 30.21 in 0.5 miles NNE 3.5 mph - N/A Fog Fog
7:53 AM 37.9°F 37.9°F 100% 30.20 in 0.5 miles Calm Calm - N/A Fog Fog
8:34 AM 37.4°F 35.6°F 93% 30.16 in 0.2 miles SE 3.5 mph - N/A Fog Fog
8:53 AM 37.9°F 37.0°F 97% 30.19 in 0.2 miles Calm Calm - N/A Fog Fog
9:03 AM 37.4°F 37.4°F 100% 30.16 in 0.1 miles SE 3.5 mph - N/A Fog Fog
9:53 AM 39.0°F 37.9°F 96% 30.17 in 0.1 miles Calm Calm - N/A Fog Fog
10:36 AM 39.2°F 39.2°F 100% 30.13 in 0.1 miles Calm Calm - N/A Fog Fog
10:46 AM 41.0°F 39.2°F 93% 30.12 in 0.1 miles Calm Calm - N/A Fog Fog
10:53 AM 39.9°F 39.0°F 97% 30.14 in 0.2 miles Variable 3.5 mph - N/A Fog Fog
11:07 AM 39.2°F 39.2°F 100% 30.10 in 0.2 miles North 3.5 mph - N/A Fog Fog
11:16 AM 41.0°F 39.2°F 93% 30.10 in 0.5 miles NNE 3.5 mph - N/A Fog Fog
11:45 AM 42.8°F 39.2°F 87% 30.07 in 10.0 miles NNE 4.6 mph - N/A   Scattered Clouds
11:53 AM 43.0°F 41.0°F 93% 30.10 in 10.0 miles NNE 4.6 mph - N/A   Scattered Clouds
12:53 PM 48.9°F 43.0°F 80% 30.06 in 10.0 miles North 5.8 mph - N/A   Clear
1:53 PM 51.1°F 39.9°F 66% 30.05 in 10.0 miles NW 6.9 mph - N/A   Unknown
2:53 PM 51.1°F 39.9°F 66% 30.04 in 10.0 miles North 5.8 mph - N/A   Clear
3:53 PM 46.9°F 39.9°F 77% 30.03 in 10.0 miles West 4.6 mph - N/A   Clear
4:53 PM 42.1°F 39.9°F 92% 30.02 in 10.0 miles Calm Calm - N/A   Partly Cloudy
5:53 PM 39.9°F 37.9°F 93% 30.01 in 10.0 miles Calm Calm - N/A   Mostly Cloudy
6:53 PM 39.9°F 37.9°F 93% 30.00 in 10.0 miles Calm Calm - N/A   Scattered Clouds
7:06 PM 37.4°F 35.6°F 93% 29.97 in 1.8 miles Calm Calm - N/A   Partly Cloudy
7:14 PM 39.2°F 37.4°F 93% 29.96 in 10.0 miles Calm Calm - N/A   Partly Cloudy
7:53 PM 37.0°F 35.1°F 93% 29.99 in 10.0 miles Calm Calm - N/A   Clear
8:53 PM 37.0°F 36.0°F 96% 29.99 in 10.0 miles Calm Calm - N/A   Clear
9:18 PM 37.4°F 37.4°F 100% 29.96 in 10.0 miles Calm Calm - N/A   Partly Cloudy
9:33 PM 37.4°F 35.6°F 93% 29.95 in 10.0 miles Calm Calm - N/A   Mostly Cloudy
9:40 PM 37.4°F 37.4°F 100% 29.96 in 0.8 miles Calm Calm - N/A   Overcast
9:50 PM 37.4°F 35.6°F 93% 29.96 in 0.2 miles Calm Calm - N/A Fog Fog
9:53 PM 37.9°F 36.0°F 93% 29.99 in 0.2 miles Calm Calm - N/A Fog Fog
10:00 PM 39.2°F 37.4°F 93% 29.96 in 0.2 miles SW 3.5 mph - N/A Fog Fog
10:53 PM 37.9°F 37.0°F 97% 29.97 in 0.2 miles Calm Calm - N/A Fog Fog
11:53 PM 39.9°F 39.0°F 97% 29.97 in 0.2 miles Calm Calm - N/A Fog Fog
Moon Phase
Nov. 15 Nov. 20 Nov. 28 Dec. 06 Dec. 13
Sunrise:07:19 AM (PST) Moon Rise:09:27 AM (PST)11/15
Sunset:04:29 PM (PST) Moon Set:06:20 PM (PST)11/15

Copyright © 2014 The Weather Underground, Inc.